Tinker AFB, OK

3:45 AM CDT on October 17, 2017 (GMT -0500)
Tinker Air Force Base

Weather History for KTIK - September, 2012

Change the Weather History Date:

Saturday, September 15, 2012

  Actual Average Record
Temperature  
Mean Temperature 62 °F -  
Max Temperature 65 °F 81 °F 93 °F (1997)
Min Temperature 58 °F 62 °F 51 °F (2008)
Degree Days  
Heating Degree Days 3    
Growing Degree Days 12 (Base 50)    
Moisture  
Dew Point 59 °F    
Average Humidity 93    
Maximum Humidity 100    
Minimum Humidity 78    
Precipitation  
Precipitation 0.00 in - - ()
Sea Level Pressure  
Sea Level Pressure 30.18 in    
Wind  
Wind Speed 4 mph (NW)    
Max Wind Speed 7 mph    
Max Gust Speed -    
Visibility 8 miles    
Events      
Averages and records for this station are not official NWS values.
T = Trace of Precipitation, MM = Missing Value Source: NWS Daily Summary

Daily Weather History Graph

Daily Weather History Graph

Search for Another Location

Airport or City:

Trip Planner

Search our weather history database for the weather conditions in past years. The results will help you decide how hot, cold, wet, or windy it might be!

Date:

Astronomy

Sep. 15, 2012 Rise Set
Actual Time 7:12 AM CDT 7:35 PM CDT
Civil Twilight 6:47 AM CDT 8:01 PM CDT
Nautical Twilight 6:17 AM CDT 8:31 PM CDT
Astronomical Twilight 5:46 AM CDT 9:01 PM CDT
Moon 6:44 AM CDT (9/15) 7:09 PM CDT (9/15)
Length of Visible Light 13h 14m
Length of Day
12h 23m
Waning Crescent, 0% of the Moon is Illuminated
Sep 15
Waning Crescent
Sep 15
New
Sep 22
First Quarter
Sep 29
Full
Oct 8
Last Quarter

Hourly Weather History & Observations

Time (CDT) Temp. Dew Point Humidity Pressure Visibility Wind Dir Wind Speed Gust Speed Precip Events Conditions
12:37 AM 59.0 °F 57.2 °F 94% 30.23 in 10.0 mi NNW 4.6 mph - N/A   Overcast
12:55 AM 58.5 °F 57.7 °F 97% 30.23 in 6.0 mi NNW 4.6 mph - N/A   Overcast
12:57 AM 59.0 °F 57.2 °F 94% 30.23 in 5.0 mi North 4.6 mph - N/A   Overcast
1:01 AM 59.0 °F 57.2 °F 94% 30.23 in 4.0 mi North 3.5 mph - N/A   Overcast
1:11 AM 59.0 °F 59.0 °F 100% 30.23 in 4.0 mi NNW 3.5 mph - N/A   Overcast
1:19 AM 59.0 °F 59.0 °F 100% 30.22 in 4.0 mi NNW 4.6 mph - N/A   Overcast
1:21 AM 59.0 °F 59.0 °F 100% 30.22 in 4.0 mi NNW 4.6 mph - N/A   Overcast
1:55 AM 58.6 °F 58.6 °F 100% 30.22 in 5.0 mi NNW 4.6 mph - N/A   Overcast
2:30 AM 59.0 °F 59.0 °F 100% 30.22 in 6.0 mi NW 3.5 mph - N/A   Overcast
2:36 AM 59.0 °F 59.0 °F 100% 30.22 in 4.0 mi NW 4.6 mph - N/A   Overcast
2:39 AM 59.0 °F 59.0 °F 100% 30.22 in 3.0 mi NW 4.6 mph - N/A   Overcast
2:43 AM 59.0 °F 59.0 °F 100% 30.21 in 3.0 mi NW 4.6 mph - N/A   Overcast
2:55 AM 58.6 °F 58.6 °F 100% 30.21 in 3.0 mi NW 4.6 mph - N/A   Overcast
3:01 AM 59.0 °F 59.0 °F 100% 30.21 in 4.0 mi NW 4.6 mph - N/A   Overcast
3:16 AM 59.0 °F 59.0 °F 100% 30.20 in 6.0 mi NW 4.6 mph - N/A   Overcast
3:42 AM 59.0 °F 59.0 °F 100% 30.19 in 6.0 mi NW 5.8 mph - N/A   Overcast
3:43 AM 59.0 °F 59.0 °F 100% 30.19 in 6.0 mi NW 5.8 mph - N/A   Overcast
3:55 AM 58.8 °F 58.8 °F 100% 30.20 in 8.0 mi NW 5.8 mph - N/A   Overcast
3:56 AM 59.0 °F 59.0 °F 100% 30.19 in 8.0 mi NW 4.6 mph - N/A   Overcast
3:59 AM 59.0 °F 59.0 °F 100% 30.19 in 8.0 mi NW 3.5 mph - N/A   Overcast
4:07 AM 59.0 °F 59.0 °F 100% 30.19 in 8.0 mi NW 4.6 mph - N/A   Overcast
4:15 AM 59.0 °F 59.0 °F 100% 30.19 in 10.0 mi NNW 4.6 mph - N/A   Overcast
4:18 AM 59.0 °F 59.0 °F 100% 30.19 in 10.0 mi NW 4.6 mph - N/A   Overcast
4:22 AM 59.0 °F 59.0 °F 100% 30.19 in 10.0 mi NW 4.6 mph - N/A   Overcast
4:29 AM 59.0 °F 59.0 °F 100% 30.19 in 10.0 mi NW 4.6 mph - N/A   Overcast
4:37 AM 59.0 °F 59.0 °F 100% 30.19 in 10.0 mi NW 5.8 mph - N/A   Overcast
4:55 AM 59.0 °F 58.6 °F 99% 30.19 in 9.0 mi NW 3.5 mph - N/A   Overcast
5:19 AM 59.0 °F 59.0 °F 100% 30.19 in 10.0 mi NW 5.8 mph - N/A   Overcast
5:28 AM 59.0 °F 59.0 °F 100% 30.19 in 10.0 mi NW 4.6 mph - N/A   Overcast
5:55 AM 59.4 °F 58.8 °F 98% 30.19 in 10.0 mi NNW 5.8 mph - N/A   Overcast
6:12 AM 59.0 °F 59.0 °F 100% 30.19 in 10.0 mi NNW 6.9 mph - N/A   Overcast
6:30 AM 59.0 °F 59.0 °F 100% 30.19 in 10.0 mi NNW 6.9 mph - N/A   Overcast
6:38 AM 59.0 °F 59.0 °F 100% 30.19 in 10.0 mi NNW 6.9 mph - N/A   Overcast
6:55 AM 59.7 °F 59.2 °F 98% 30.19 in 10.0 mi North 5.8 mph - N/A   Overcast
6:58 AM 59.0 °F 59.0 °F 100% 30.19 in 9.0 mi NNW 5.8 mph - N/A   Overcast
7:04 AM 59.0 °F 59.0 °F 100% 30.19 in 7.0 mi NNW 5.8 mph - N/A   Overcast
7:09 AM 59.0 °F 59.0 °F 100% 30.20 in 6.0 mi NNW 6.9 mph - N/A   Overcast
7:11 AM 59.0 °F 59.0 °F 100% 30.20 in 6.0 mi NNW 5.8 mph - N/A   Light Drizzle
7:22 AM 59.0 °F 59.0 °F 100% 30.19 in 5.0 mi NW 4.6 mph - N/A   Overcast
7:27 AM 59.0 °F 59.0 °F 100% 30.19 in 4.0 mi NNW 5.8 mph - N/A   Overcast
7:47 AM 59.0 °F 59.0 °F 100% 30.19 in 10.0 mi NNW 6.9 mph - N/A   Overcast
7:55 AM 59.7 °F 59.4 °F 99% 30.19 in 10.0 mi NNW 5.8 mph - 0.00 in   Overcast
8:22 AM 60.8 °F 59.0 °F 94% 30.19 in 10.0 mi NNW 5.8 mph - N/A   Overcast
8:36 AM 60.8 °F 59.0 °F 94% 30.20 in 10.0 mi NNW 4.6 mph - N/A   Overcast
8:42 AM 60.8 °F 59.0 °F 94% 30.20 in 10.0 mi NNW 4.6 mph - N/A   Overcast
8:46 AM 60.8 °F 59.0 °F 94% 30.20 in 10.0 mi NNW 4.6 mph - N/A   Overcast
8:55 AM 60.3 °F 59.7 °F 98% 30.20 in 10.0 mi NNW 3.5 mph - N/A   Overcast
9:55 AM 62.1 °F 58.8 °F 89% 30.19 in 10.0 mi NW 3.5 mph - N/A   Overcast
10:55 AM 63.3 °F 58.6 °F 85% 30.20 in 10.0 mi NNW 4.6 mph - N/A   Overcast
11:55 AM 64.2 °F 59.0 °F 83% 30.19 in 10.0 mi Variable 3.5 mph - N/A   Overcast
12:10 PM 64.4 °F 59.0 °F 83% 30.19 in 10.0 mi NNE 3.5 mph - N/A   Overcast
12:17 PM 64.4 °F 59.0 °F 83% 30.19 in 10.0 mi NNE 3.5 mph - N/A   Overcast
12:43 PM 64.4 °F 59.0 °F 83% 30.19 in 10.0 mi Calm Calm - N/A   Overcast
12:47 PM 64.4 °F 59.0 °F 83% 30.19 in 10.0 mi WNW 5.8 mph - N/A   Overcast
12:55 PM 64.2 °F 59.5 °F 85% 30.19 in 10.0 mi WNW 6.9 mph - N/A   Overcast
12:58 PM 64.4 °F 59.0 °F 83% 30.18 in 10.0 mi WNW 5.8 mph - N/A   Overcast
1:55 PM 64.4 °F 59.5 °F 84% 30.17 in 10.0 mi NNW 3.5 mph - N/A   Overcast
2:38 PM 66.2 °F 59.0 °F 78% 30.16 in 10.0 mi West 3.5 mph - N/A   Overcast
2:48 PM 66.2 °F 59.0 °F 78% 30.16 in 10.0 mi NW 4.6 mph - N/A   Overcast
2:55 PM 65.1 °F 59.5 °F 82% 30.16 in 10.0 mi NW 6.9 mph - N/A   Overcast
3:55 PM 64.4 °F 60.3 °F 86% 30.14 in 10.0 mi NW 3.5 mph - N/A   Overcast
4:55 PM 65.5 °F 59.5 °F 81% 30.12 in 10.0 mi West 3.5 mph - N/A   Overcast
4:56 PM 66.2 °F 59.0 °F 78% 30.12 in 10.0 mi NW 3.5 mph - N/A   Overcast
5:28 PM 64.4 °F 60.8 °F 88% 30.12 in 10.0 mi Calm Calm - N/A   Overcast
5:55 PM 65.5 °F 59.9 °F 82% 30.11 in 10.0 mi WNW 3.5 mph - N/A   Overcast
6:12 PM 66.2 °F 59.0 °F 78% 30.11 in 10.0 mi West 4.6 mph - N/A   Overcast
6:15 PM 66.2 °F 59.0 °F 78% 30.11 in 10.0 mi West 4.6 mph - N/A   Overcast
6:28 PM 66.2 °F 60.8 °F 83% 30.11 in 10.0 mi WNW 3.5 mph - N/A   Overcast
6:55 PM 65.5 °F 59.5 °F 81% 30.10 in 10.0 mi Calm Calm - N/A   Overcast
7:55 PM 65.1 °F 59.9 °F 83% 30.09 in 10.0 mi Calm Calm - N/A   Overcast
8:06 PM 64.4 °F 60.8 °F 88% 30.10 in 10.0 mi Calm Calm - N/A   Overcast
8:14 PM 64.4 °F 60.8 °F 88% 30.10 in 10.0 mi Calm Calm - N/A   Overcast
8:55 PM 64.6 °F 60.6 °F 87% 30.11 in 10.0 mi East 3.5 mph - N/A   Overcast
9:03 PM 64.4 °F 60.8 °F 88% 30.11 in 10.0 mi East 3.5 mph - N/A   Overcast
9:55 PM 64.0 °F 60.8 °F 89% 30.10 in 10.0 mi ENE 3.5 mph - N/A   Overcast
10:55 PM 63.9 °F 61.0 °F 90% 30.11 in 10.0 mi East 3.5 mph - N/A   Overcast
11:55 PM 61.7 °F 60.1 °F 94% 30.11 in 10.0 mi South 4.6 mph - N/A   Partly Cloudy